COSMOS 1275 DEB, 13812

Orbit data source: Space-Track

COSMOS 1275 DEB, 13812 is space debris in LEO originally from a launch on Thu, 04 Jun 1981 UTC launched from the Plesetsk Missile And Space Complex (PKMTR). Debris objects in space refer to the collection of defunct objects orbiting the Earth. Examples of debris include non-operational satellites, rocket bodies, and fragments generated from explosions, collisions, or faulty payload assembly.

Loading next visibility...
Identifier
13812, 1981-053HG
Orbit
LEO
Country
Flag of CISCIS
Related business
Manufacturer
Unknown
Mission
Spacecraft
Bus & Motor
Unknown
Mass
Unknown
Launch date (UTC)
1981-06-04 (45 years ago)
Launch vehicle
Unknown
Launch site
Plesetsk Missile And Space Complex (PKMTR)
Object type
Payload
Rocket body
Debris
Shape & HBR
Unknown shape, 0.1 m
Radar Cross Section
Small (<0.1 m²)

Expand to show TLE details & history
Last TLE update: 1 day ago

TLE from 1 day ago
0 COSMOS 1275 DEB
1 13812U 81053HG  26036.67121373  .00011000  00000-0  36363-2 0  9994
2 13812  83.2453 110.1119 0030279  14.1527 112.1654 14.37637372206907
Epoch: 2026-02-05T16:06Z
TLE epoch observation values (Epoch: 2026-02-05T16:06:32.866Z)
Latitude
52.92982°
Longitude
-96.3166°
Altitude
783.199 km
Speed
7.463 km/s
True Right ascension
18h 44m 33s
True Declination
52° 45' 53"
Sunlit
Object was in daylight at epoch
Visualization orbit readout
Latitude
Unknown
Longitude
Unknown
Altitude
Unknown
Speed
Unknown
Apparent Right ascension
Unknown
Apparent Declination
Unknown
Sunlit
N/A
Visualization observer readout
Local Sidereal Time
18:54:48
Azimuth
Unknown
Elevation
Unknown
Doppler factor
Unknown
Orbital elements
Apogee altitude
784.99 km
Perigee altitude
741.742 km
Semi-major axis
7,141.503 km
Eccentricity
0.00303
Inclination
83.2453°
RAAN
110.1119°
Arg. of periapsis
14.1527°
True anomaly
112.48627°
Mean anomaly
112.1654°
Eccentric anomaly
112.32588°
Mean motion
3.59632 °/min
Orbital period
100.1 mins
BSTAR
0.0036363
Loading maneuver chart data...
Computing Atmospheric mass density...
Loading historical data...
Loading historical data...
Loading historical data...
Loading historical data...
Loading historical data...
Loading historical data...
Loading historical data...

Documentation

Showing up to 5 results
|